Location: Unspecified
(0.0000°N, 0.0000°E)
Time: 13:52:43
(UTC+00:00)

A-11 Canister half - Pass Details

Date: 21 May 2026
Orbit: 1524 x 1684 km, 47.3° (Epoch: 7 June)

Event Time Altitude Azimuth Distance (km) Brightness Sun altitude
Rises 21:55:14 0° 349° (N) 4,870 12.0 -54.0°
Reaches altitude 10° 21:59:52 10° 7° (N) 3,907 11.3 -54.9°
Enters shadow 22:00:34 11° 11° (N) 3,792 11.2 -55.1°
Maximum altitude 22:06:06 18° 47° (NE) 3,329 - -56.2°
Drops below altitude 10° 22:12:21 10° 86° (E) 3,942 - -57.4°
Sets 22:16:59 0° 103° (ESE) 4,930 - -58.3°
